Location: Unspecified
(48.7670°N, 0.0000°E)
Time: 04:36:59
(UTC+00:00)

Courier 1B - Pass Details

Date: 27 June 2019
Orbit: 963 x 1209 km, 28.3° (Epoch: 20 July)

Event Time Altitude Azimuth Distance (km) Brightness Sun altitude
Rises 17:46:54 0° 227° (SW) 3,742 11.0 19.9°
Reaches altitude 10° 17:51:15 10° 201° (SSW) 2,845 10.1 19.2°
Maximum altitude 17:54:13 13° 176° (S) 2,658 9.7 18.7°
Drops below altitude 10° 17:57:16 10° 150° (SSE) 2,925 9.7 18.2°
Sets 18:01:52 0° 125° (SE) 3,944 10.1 17.5°
